Location: Newark
(47.7394°N, 8.0008°E)
Time: 15:27:51
(UTC+00:00)

N. Korean satellite - Pass Details

Date: 21 December 2019
Orbit: 454 x 508 km, 97.2° (Epoch: 17 January)

Event Time Altitude Azimuth Distance (km) Brightness Sun altitude
Rises 06:33:43 0° 356° (N) 2,511 9.9 -6.6°
Reaches altitude 10° 06:36:25 10° 333° (NNW) 1,620 8.7 -6.2°
Maximum altitude 06:38:29 15° 296° (WNW) 1,323 8.1 -5.9°
Drops below altitude 10° 06:40:32 10° 259° (W) 1,601 8.7 -5.6°
Sets 06:43:11 0° 236° (SW) 2,465 9.9 -5.2°
